Weather History for KFAY - August, 2014

Change the Weather History Date:

Tuesday, August 12, 2014

  Actual Average Record
Temperature  
Mean Temperature 82 °F 80 °F  
Max Temperature 91 °F 90 °F 102 °F (1941)
Min Temperature 72 °F 70 °F 57 °F (1954)
Degree Days  
Heating Degree Days 0 0  
Month to date heating degree days 0 0  
Since 1 June heating degree days 0 0  
Since 1 July heating degree days 0 0  
Cooling Degree Days 17 15  
Month to date cooling degree days 147 187  
Year to date cooling degree days 1454 1374  
Since 1 June cooling degree days 1088 1090  
Growing Degree Days 31 (Base 50)    
Moisture  
Dew Point 73 °F    
Average Humidity 78    
Maximum Humidity 100    
Minimum Humidity 56    
Precipitation  
Precipitation 0.00 in 0.18 in 2.36 in (1968)
Month to date precipitation 2.55 2.25  
Year to date precipitation 25.55 28.19  
Sea Level Pressure  
Sea Level Pressure 29.86 in    
Wind  
Wind Speed 5 mph (SSW)    
Max Wind Speed 14 mph    
Max Gust Speed 18 mph    
Visibility 8 miles    
Events Fog    
T = Trace of Precipitation, MM = Missing Value Source: NWS Daily Summary

Daily Weather History Graph

Daily Weather History Graph

Search for Another Location

Airport or City:

Trip Planner

Search our weather history database for the weather conditions in past years. The results will help you decide how hot, cold, wet, or windy it might be!

Date:

Astronomy

Aug. 12, 2014 Rise Set
Actual Time 6:33 AM EDT 8:07 PM EDT
Civil Twilight 6:06 AM EDT 8:34 PM EDT
Nautical Twilight 5:33 AM EDT 9:06 PM EDT
Astronomical Twilight 4:59 AM EDT 9:40 PM EDT
Moon 9:21 PM EDT (8/12) 8:41 AM EDT (8/12)
Length of Visible Light 14h 27m
Length of Day
13h 33m
Waning Gibbous, 95% of the Moon is Illuminated
Aug 12
Waning Gibbous
Aug 17
Last Quarter
Aug 25
New
Sep 2
First Quarter
Sep 8
Full

Hourly Weather History & Observations

Time (EDT) Temp. Heat Index Dew Point Humidity Pressure Visibility Wind Dir Wind Speed Gust Speed Precip Events Conditions
12:53 AM 73.9 °F - 72.0 °F 93% 29.92 in 10.0 mi East 5.8 mph - N/A   Partly Cloudy
1:35 AM 73.9 °F - 72.0 °F 93% 29.94 in 10.0 mi ENE 3.5 mph - N/A   Mostly Cloudy
1:53 AM 73.9 °F - 72.0 °F 93% 29.91 in 10.0 mi East 3.5 mph - N/A   Overcast
2:40 AM 73.0 °F - 71.1 °F 93% 29.91 in 8.0 mi Calm Calm - N/A   Mostly Cloudy
2:53 AM 73.0 °F - 71.1 °F 93% 29.89 in 8.0 mi North 3.5 mph - N/A   Scattered Clouds
3:04 AM 73.0 °F - 71.1 °F 93% 29.91 in 8.0 mi Calm Calm - N/A   Mostly Cloudy
3:53 AM 72.0 °F - 71.1 °F 97% 29.88 in 7.0 mi Calm Calm - N/A   Overcast
4:22 AM 73.0 °F - 71.1 °F 93% 29.89 in 7.0 mi Calm Calm - N/A   Overcast
5:53 AM 72.0 °F - 71.1 °F 97% 29.87 in 7.0 mi Calm Calm - N/A   Overcast
6:33 AM 72.0 °F - 71.1 °F 97% 29.89 in 1.5 mi Calm Calm - N/A   Overcast
6:42 AM 72.0 °F - 71.1 °F 97% 29.89 in 0.5 mi Calm Calm - N/A Fog Fog
6:53 AM 72.0 °F - 71.1 °F 97% 29.88 in 0.2 mi Calm Calm - N/A Fog Fog
8:50 AM 73.4 °F - 71.6 °F 94% 29.90 in 0.5 mi Calm Calm - N/A Fog Fog
8:53 AM 73.0 °F - 73.0 °F 100% 29.88 in 0.8 mi Calm Calm - N/A   Mist
9:04 AM 73.9 °F - 73.0 °F 97% 29.89 in 1.5 mi Calm Calm - N/A   Overcast
9:11 AM 73.9 °F - 72.0 °F 93% 29.89 in 3.0 mi Calm Calm - N/A   Overcast
9:53 AM 75.0 °F - 73.0 °F 94% 29.88 in 9.0 mi WSW 4.6 mph - N/A   Overcast
10:00 AM 75.9 °F - 73.0 °F 91% 29.90 in 10.0 mi WSW 4.6 mph - N/A   Overcast
10:47 AM 78.8 °F - 73.4 °F 83% 29.90 in 10.0 mi Calm Calm - N/A   Mostly Cloudy
10:59 AM 79.0 °F - 73.0 °F 82% 29.90 in 9.0 mi SSW 3.5 mph - N/A   Mostly Cloudy
11:08 AM 79.0 °F - 73.0 °F 82% 29.90 in 10.0 mi Variable 4.6 mph - N/A   Mostly Cloudy
11:53 AM 82.0 °F 86.7 °F 72.0 °F 71% 29.88 in 10.0 mi SW 5.8 mph - N/A   Overcast
1:53 PM 86.0 °F 93.0 °F 73.0 °F 65% 29.84 in 10.0 mi Variable 5.8 mph - N/A   Scattered Clouds
2:53 PM 86.0 °F 93.0 °F 73.0 °F 65% 29.82 in 10.0 mi SW 3.5 mph - N/A   Scattered Clouds
3:53 PM 89.1 °F 97.0 °F 73.0 °F 59% 29.79 in 10.0 mi West 4.6 mph - N/A   Clear
4:53 PM 90.0 °F 96.9 °F 72.0 °F 55% 29.77 in 10.0 mi SW 9.2 mph - N/A   Scattered Clouds
5:53 PM 88.0 °F 96.5 °F 73.9 °F 63% 29.77 in 10.0 mi South 8.1 mph - N/A   Clear
6:53 PM 86.0 °F 93.8 °F 73.9 °F 67% 29.78 in 10.0 mi SSW 5.8 mph - N/A   Clear
7:53 PM 84.0 °F 91.9 °F 75.0 °F 74% 29.79 in 10.0 mi SSW 9.2 mph - N/A   Partly Cloudy
8:53 PM 82.0 °F 88.6 °F 75.0 °F 79% 29.79 in 10.0 mi SSW 10.4 mph - N/A   Scattered Clouds
9:53 PM 79.0 °F - 75.0 °F 88% 29.81 in 10.0 mi SSW 6.9 mph - N/A   Clear
10:53 PM 78.1 °F - 73.9 °F 87% 29.83 in 10.0 mi SSW 5.8 mph - N/A   Partly Cloudy
11:53 PM 77.0 °F - 73.9 °F 90% 29.83 in 10.0 mi South 3.5 mph - N/A   Partly Cloudy